sat.trackr.live / text

‹ back to catalog

STARLINK-36244

NORAD 68145 · 2026-049D

PAYLOAD ACTIVE UNKNOWN

§ Identity

Operator
Country
US
Launch date
2026-03-13
Launch site
AFWTR
Launch vehicle
Mass (kg)
RCS (m²)

Purposes: comms

External: N2YO · Heavens-Above · Gunter

§ Orbital elements

Epoch: 2026-09-19T06:35:23.349120Z

Period
93.91 min
Inclination
97.2829°
Eccentricity
0.0002383
Mean motion
15.33454656 rev/d
Perigee alt
463.9 km
Apogee alt
467.1 km
Semi-major
6,843.7 km
B*
4.5363e-4
RAAN
282.2509°
Arg perigee
117.4290°
Mean anomaly
242.7196°
Rev number
2,931

§ Raw data

STARLINK-362441 68145U 26049D   26262.27457580  .00014603  00000+0  45363-3 0  99982 68145  97.2829 282.2509 0002383 117.4290 242.7196 15.33454656 29319

JSON: /api/v1/satellites/68145 · /tle

For live sub-satellite position, see the globe view (requires WebGL).

§ Visibility from observer

Set your observer location to see the next 7 days of passes ≥ 10°. The values pass through the URL so the page stays shareable.

No JS? Fill the form by hand. The geolocation button needs JavaScript.